Total_Precipitation_Accumulation
0.33 0.31 0.26 0.18 0.16 0.18 0.19 0.25 0.30 0.25 0.12 0.03 0.03 0.04 0.03 0.04 0.04 0.04 0.01 0.04 0.03 0.01 0.01 0.01 0.01 0.00 0.00 0.00 0.00 0.00 0.00 0.00 0.00 0.00 0.00 0.01 0.01 0.01
0.41 0.43 0.47 0.47 0.42 0.32 0.30 0.32 0.36 0.37 0.31 0.11 0.05 0.06 0.09 0.13 0.16 0.13 0.09 0.11 0.06 0.03 0.02 0.00 0.00 0.00 0.00 0.00 0.00 0.00 0.00 0.00 0.00 0.00 0.01 0.01 0.01 0.01
0.89 0.74 0.48 0.43 0.59 0.53 0.40 0.34 0.38 0.45 0.50 0.36 0.20 0.18 0.17 0.17 0.17 0.17 0.13 0.09 0.06 0.04 0.01 0.00 0.00 0.00 0.00 0.00 0.00 0.00 0.00 0.00 0.00 0.00 0.01 0.01 0.00 0.01
0.60 0.69 0.64 0.57 0.50 0.38 0.35 0.33 0.30 0.30 0.37 0.31 0.22 0.22 0.23 0.24 0.27 0.27 0.24 0.16 0.08 0.05 0.02 0.01 0.00 0.00 0.00 0.00 0.00 0.00 0.00 0.00 0.00 0.00 0.00 0.00 0.00 0.00
0.47 0.47 0.41 0.49 0.45 0.45 0.47 0.47 0.41 0.43 0.45 0.36 0.20 0.11 0.11 0.15 0.19 0.22 0.21 0.17 0.11 0.07 0.04 0.01 0.00 0.00 0.00 0.00 0.00 0.00 0.00 0.00 0.00 0.00 0.00 0.00 0.00 0.00
0.13 0.23 0.34 0.49 0.59 0.66 0.64 0.53 0.52 0.58 0.53 0.46 0.27 0.15 0.10 0.09 0.10 0.09 0.09 0.06 0.05 0.04 0.02 0.00 0.00 0.00 0.00 0.00 0.00 0.00 0.00 0.00 0.00 0.00 0.00 0.00 0.00 0.00
0.01 0.03 0.05 0.10 0.16 0.24 0.45 0.55 0.66 0.75 0.79 0.74 0.60 0.45 0.31 0.21 0.14 0.08 0.08 0.08 0.08 0.03 0.01 0.00 0.00 0.00 0.00 0.00 0.00 0.00 0.00 0.00 0.00 0.00 0.00 0.00 0.00 0.00
0.00 0.00 0.02 0.06 0.05 0.08 0.11 0.15 0.21 0.31 0.45 0.54 0.60 0.59 0.50 0.43 0.46 0.43 0.39 0.35 0.24 0.07 0.02 0.00 0.00 0.00 0.00 0.00 0.00 0.00 0.00 0.00 0.00 0.00 0.00 0.00 0.00 0.00
0.00 0.00 0.00 0.00 0.03 0.02 0.05 0.08 0.10 0.16 0.23 0.23 0.21 0.16 0.17 0.19 0.23 0.29 0.28 0.24 0.19 0.13 0.14 0.08 0.01 0.00 0.00 0.00 0.00 0.00 0.00 0.00 0.00 0.00 0.00 0.00 0.00 0.00
0.00 0.00 0.00 0.00 0.00 0.01 0.01 0.02 0.03 0.06 0.13 0.19 0.19 0.23 0.31 0.35 0.40 0.40 0.34 0.25 0.16 0.12 0.11 0.06 0.01 0.00 0.00 0.00 0.00 0.00 0.00 0.00 0.00 0.00 0.00 0.00 0.00 0.00
0.00 0.00 0.00 0.00 0.01 0.02 0.01 0.00 0.01 0.02 0.09 0.15 0.21 0.27 0.28 0.27 0.26 0.27 0.34 0.33 0.32 0.21 0.15 0.10 0.05 0.01 0.00 0.00 0.00 0.00 0.00 0.00 0.00 0.00 0.00 0.00 0.00 0.00
0.00 0.00 0.00 0.00 0.01 0.02 0.01 0.00 0.01 0.01 0.01 0.02 0.04 0.07 0.10 0.14 0.18 0.17 0.17 0.22 0.20 0.20 0.17 0.15 0.10 0.05 0.00 0.00 0.00 0.00 0.00 0.00 0.00 0.00 0.00 0.00 0.00 0.00
0.01 0.00 0.00 0.03 0.03 0.03 0.03 0.01 0.02 0.03 0.03 0.04 0.05 0.07 0.07 0.08 0.09 0.08 0.07 0.09 0.08 0.09 0.12 0.14 0.09 0.04 0.00 0.00 0.00 0.00 0.00 0.00 0.00 0.00 0.00 0.00 0.00 0.00
0.02 0.01 0.01 0.06 0.06 0.05 0.04 0.03 0.06 0.07 0.04 0.03 0.04 0.06 0.09 0.08 0.09 0.07 0.05 0.06 0.05 0.03 0.03 0.03 0.01 0.00 0.00 0.00 0.00 0.00 0.00 0.00 0.00 0.00 0.00 0.00 0.00 0.00
0.02 0.04 0.06 0.10 0.09 0.06 0.06 0.06 0.09 0.06 0.04 0.06 0.07 0.08 0.07 0.07 0.08 0.11 0.12 0.06 0.02 0.04 0.03 0.01 0.00 0.00 0.00 0.00 0.00 0.00 0.00 0.00 0.00 0.00 0.00 0.00 0.00 0.00
0.04 0.05 0.09 0.10 0.12 0.14 0.14 0.11 0.09 0.08 0.10 0.10 0.12 0.12 0.18 0.27 0.27 0.20 0.11 0.11 0.09 0.04 0.01 0.00 0.00 0.00 0.00 0.00 0.00 0.00 0.00 0.00 0.00 0.00 0.00 0.00 0.00 0.00
0.08 0.04 0.08 0.14 0.14 0.12 0.11 0.16 0.19 0.16 0.13 0.12 0.13 0.15 0.15 0.20 0.27 0.30 0.24 0.10 0.07 0.06 0.04 0.00 0.00 0.00 0.00 0.00 0.00 0.00 0.00 0.00 0.00 0.00 0.00 0.00 0.00 0.00
0.11 0.05 0.04 0.06 0.09 0.16 0.21 0.23 0.21 0.24 0.23 0.19 0.15 0.18 0.21 0.19 0.16 0.18 0.19 0.22 0.16 0.05 0.00 0.00 0.00 0.00 0.00 0.00 0.00 0.00 0.00 0.00 0.00 0.00 0.00 0.00 0.00 0.00
0.06 0.04 0.03 0.05 0.11 0.14 0.17 0.30 0.34 0.26 0.34 0.41 0.51 0.47 0.37 0.35 0.31 0.22 0.18 0.18 0.15 0.20 0.16 0.04 0.00 0.00 0.00 0.00 0.00 0.00 0.00 0.00 0.00 0.00 0.00 0.00 0.00 0.00
0.01 0.03 0.03 0.04 0.07 0.18 0.29 0.30 0.37 0.49 0.53 0.56 0.65 0.65 0.62 0.56 0.45 0.32 0.23 0.17 0.13 0.09 0.10 0.11 0.03 0.00 0.00 0.00 0.00 0.00 0.00 0.00 0.00 0.00 0.00 0.00 0.00 0.00
0.01 0.02 0.04 0.04 0.04 0.10 0.20 0.38 0.48 0.47 0.45 0.48 0.51 0.51 0.48 0.47 0.39 0.34 0.29 0.22 0.14 0.10 0.06 0.03 0.01 0.00 0.00 0.00 0.00 0.00 0.00 0.00 0.00 0.00 0.00 0.00 0.00 0.00
0.01 0.02 0.02 0.03 0.05 0.08 0.14 0.24 0.37 0.45 0.47 0.41 0.36 0.35 0.36 0.35 0.27 0.26 0.29 0.27 0.20 0.10 0.05 0.07 0.04 0.01 0.00 0.00 0.00 0.00 0.00 0.00 0.00 0.00 0.00 0.00 0.00 0.00
0.01 0.01 0.02 0.03 0.03 0.06 0.11 0.18 0.24 0.26 0.28 0.30 0.32 0.32 0.31 0.32 0.24 0.22 0.23 0.25 0.22 0.25 0.18 0.14 0.08 0.01 0.00 0.00 0.01 0.00 0.00 0.00 0.00 0.00 0.00 0.00 0.00 0.00